This is the latest recevied weather packets stored in our database for station/object N4TLC. If no packets are shown the sender has not sent any weather packets the latest 10 day(s).
| Time | Temp. | Humidity | Pressure | Rain* | Wind** | Luminosity | Snow |
|---|---|---|---|---|---|---|---|
| 1777324479 | 23.33° C | 35% | 1023.1 hPa | 0 mm | - | 524 W/m² | - |
| 1777324176 | 23.33° C | 35% | 1023.1 hPa | 0 mm | - | 545 W/m² | - |
| 1777323874 | 22.78° C | 35% | 1023.1 hPa | 0 mm | - | 565 W/m² | - |
| 1777323570 | 22.78° C | 35% | 1023 hPa | 0 mm | - | 556 W/m² | - |
| 1777323267 | 22.78° C | 35% | 1022.8 hPa | 0 mm | - | 592 W/m² | - |
| 1777322966 | 22.78° C | 35% | 1023 hPa | 0 mm | - | 608 W/m² | - |
| 1777322663 | 22.78° C | 35% | 1022.9 hPa | 0 mm | - | 576 W/m² | - |
| 1777322361 | 22.78° C | 35% | 1022.9 hPa | 0 mm | - | 654 W/m² | - |
| 1777322058 | 22.78° C | 36% | 1023.3 hPa | 0 mm | - | 679 W/m² | - |
| 1777321754 | 23.33° C | 35% | 1023.4 hPa | 0 mm | - | 692 W/m² | - |
| 1777321451 | 23.33° C | 34% | 1023.5 hPa | 0 mm | - | 706 W/m² | - |
| 1777321148 | 22.78° C | 34% | 1023.5 hPa | 0 mm | - | 722 W/m² | - |
| 1777320846 | 22.78° C | 35% | 1023.4 hPa | 0 mm | - | 733 W/m² | - |
| 1777320542 | 22.78° C | 34% | 1023.3 hPa | 0 mm | - | 771 W/m² | - |
| 1777320240 | 22.78° C | 35% | 1023.3 hPa | 0 mm | - | 786 W/m² | - |
| 1777319936 | 22.22° C | 38% | 1023.4 hPa | 0 mm | - | 806 W/m² | - |
| 1777319634 | 21.67° C | 37% | 1023.5 hPa | 0 mm | - | 811 W/m² | - |
| 1777319330 | 22.22° C | 36% | 1023.5 hPa | 0 mm | - | 812 W/m² | - |
| 1777319028 | 22.22° C | 35% | 1023.8 hPa | 0 mm | - | 803 W/m² | - |
| 1777318724 | 21.67° C | 37% | 1023.8 hPa | 0 mm | - | 835 W/m² | - |
| 1777318420 | 21.67° C | 38% | 1023.8 hPa | 0 mm | - | 854 W/m² | - |
| 1777318118 | 21.67° C | 39% | 1023.8 hPa | 0 mm | - | 879 W/m² | - |
| 1777317815 | 21.11° C | 41% | 1023.9 hPa | 0 mm | - | 881 W/m² | - |
| 1777317512 | 21.11° C | 39% | 1023.9 hPa | 0 mm | - | 890 W/m² | - |
| 1777317208 | 21.67° C | 39% | 1023.9 hPa | 0 mm | - | 906 W/m² | - |
* Rain latest hour (hover to see other rain measurements)
** Current wind speed in m/s (hover to see current wind gust speed)